TimeCST,TemperatureF,Dew PointF,Humidity,Sea Level PressureIn,VisibilityMPH,Wind Direction,Wind SpeedMPH,Gust SpeedMPH,PrecipitationIn,Events,Conditions,WindDirDegrees,DateUTC
12:54 AM,33.1,30.0,89,29.78,10.0,West,8.1,-,N/A,,Clear,270,2014-01-11 06:54:00
1:54 AM,34.0,30.9,89,29.81,10.0,West,9.2,-,N/A,,Clear,280,2014-01-11 07:54:00
2:54 AM,30.9,28.9,92,29.83,10.0,West,6.9,-,N/A,,Clear,270,2014-01-11 08:54:00
3:54 AM,30.0,28.9,96,29.85,10.0,West,4.6,-,N/A,,Clear,280,2014-01-11 09:54:00
4:54 AM,30.0,28.0,92,29.86,10.0,West,4.6,-,N/A,,Clear,260,2014-01-11 10:54:00
5:54 AM,28.9,27.0,92,29.88,10.0,WSW,6.9,-,N/A,,Clear,250,2014-01-11 11:54:00
6:54 AM,28.9,27.0,92,29.92,10.0,West,8.1,-,N/A,,Clear,270,2014-01-11 12:54:00
7:54 AM,28.9,26.1,89,29.93,10.0,West,4.6,-,N/A,,Mostly Cloudy,270,2014-01-11 13:54:00
8:54 AM,33.1,28.0,82,29.96,10.0,WSW,8.1,-,N/A,,Clear,240,2014-01-11 14:54:00
9:54 AM,39.0,30.0,70,29.99,10.0,West,10.4,-,N/A,,Clear,270,2014-01-11 15:54:00
10:54 AM,46.9,30.9,54,30.00,10.0,NW,15.0,-,N/A,,Clear,320,2014-01-11 16:54:00
11:54 AM,52.0,30.9,45,29.99,10.0,NW,17.3,-,N/A,,Clear,320,2014-01-11 17:54:00
12:54 PM,54.0,30.0,40,29.98,10.0,NW,15.0,21.9,N/A,,Clear,320,2014-01-11 18:54:00
1:54 PM,55.0,30.0,38,29.97,10.0,NW,15.0,23.0,N/A,,Clear,310,2014-01-11 19:54:00
2:54 PM,55.9,28.9,36,29.98,10.0,NW,15.0,-,N/A,,Clear,320,2014-01-11 20:54:00
3:54 PM,55.0,28.9,37,29.99,10.0,WNW,12.7,-,N/A,,Clear,290,2014-01-11 21:54:00
4:54 PM,52.0,28.9,41,29.99,10.0,NW,5.8,-,N/A,,Clear,310,2014-01-11 22:54:00
5:54 PM,42.1,28.9,60,29.99,10.0,SSW,3.5,-,N/A,,Clear,210,2014-01-11 23:54:00
6:54 PM,39.0,28.9,67,29.99,10.0,SSE,3.5,-,N/A,,Clear,150,2014-01-12 00:54:00
7:54 PM,37.0,27.0,67,29.99,10.0,SE,3.5,-,N/A,,Clear,130,2014-01-12 01:54:00
8:54 PM,37.0,28.0,70,29.99,10.0,SSE,4.6,-,N/A,,Clear,160,2014-01-12 02:54:00
9:54 PM,37.0,28.0,70,29.97,10.0,SSE,3.5,-,N/A,,Clear,160,2014-01-12 03:54:00
10:54 PM,34.0,27.0,75,29.95,10.0,SSE,8.1,-,N/A,,Clear,160,2014-01-12 04:54:00
11:54 PM,36.0,28.0,73,29.91,10.0,SSE,6.9,-,N/A,,Clear,160,2014-01-12 05:54:00